EW4366 Weather Reports


time (UTC)temp
F
wind
direction
speed
knots
gust
knots
rain 1hr
in
rain 24hr
in
rain mn
in
humidity
%
barometer
mb
20260510213018 77 0.0 0.0 0.00 0.00 0.00 45 1014.0
20260510212017 78 0.0 0.0 0.00 0.00 0.00 46 1014.1
20260510211017 78 0.0 1.7 0.00 0.00 0.00 44 1014.1
20260510210017 76 293 1.7 3.5 0.00 0.00 0.00 46 1014.3
20260510205017 76 0.0 1.7 0.00 0.00 0.00 46 1014.4
20260510204017 76 0.0 0.9 0.00 0.00 0.00 44 1014.5
20260510203018 76 0.0 0.0 0.00 0.00 0.00 42 1014.3
20260510202017 77 0.0 0.0 0.00 0.00 0.00 41 1014.1
20260510201017 77 0.0 0.0 0.00 0.00 0.00 40 1014.2
20260510200037 78 248 1.7 3.5 0.00 0.00 0.00 40 1014.2
20260510195017 79 270 0.9 1.7 0.00 0.00 0.00 40 1014.2
20260510194017 79 180 0.9 3.5 0.00 0.00 0.00 40 1014.3
20260510193017 79 0.0 2.6 0.00 0.00 0.00 42 1014.3
20260510192017 78 270 0.9 0.9 0.00 0.00 0.00 40 1014.3
20260510191057 79 270 2.6 4.3 0.00 0.00 0.00 42 1014.4
20260510190037 79 203 0.9 3.5 0.00 0.00 0.00 39 1014.4
20260510185017 79 203 1.7 5.2 0.00 0.00 0.00 40 1014.5
20260510184017 78 315 1.7 4.3 0.00 0.00 0.00 42 1014.5
20260510183017 78 203 0.9 3.5 0.00 0.00 0.00 42 1014.5
20260510182017 78 315 0.9 5.2 0.00 0.00 0.00 42 1014.7
20260510181017 78 0.0 1.7 0.00 0.00 0.00 43 1014.8
20260510180017 78 270 2.6 5.2 0.00 0.00 0.00 44 1014.9
20260510175017 78 0 1.7 5.2 0.00 0.00 0.00 46 1015.2
20260510174017 77 203 1.7 2.6 0.00 0.00 0.00 43 1015.2
20260510173017 77 248 0.9 2.6 0.00 0.00 0.00 43 1015.2
20260510172017 78 270 0.9 2.6 0.00 0.00 0.00 44 1015.4
20260510171017 77 0.0 1.7 0.00 0.00 0.00 44 1015.5
20260510170017 77 270 0.9 4.3 0.00 0.00 0.00 43 1015.5
20260510165017 76 225 1.7 4.3 0.00 0.00 0.00 44 1015.5
20260510164017 76 0.0 0.0 0.00 0.00 0.00 42 1015.5
20260510163016 76 0.0 0.9 0.00 0.00 0.00 45 1015.7
20260510162037 75 248 0.9 1.7 0.00 0.00 0.00 48 1015.7
20260510161017 76 225 2.6 6.1 0.00 0.00 0.00 46 1015.8
20260510160016 75 248 0.9 3.5 0.00 0.00 0.00 47 1015.9
20260510155037 74 270 3.5 4.3 0.00 0.00 0.00 48 1016.0
20260510154016 74 293 1.7 2.6 0.00 0.00 0.00 49 1016.0
20260510153017 74 0.0 0.9 0.00 0.00 0.00 48 1016.1
20260510152017 74 338 0.9 3.5 0.00 0.00 0.00 50 1016.2
20260510151017 73 0.0 0.9 0.00 0.00 0.00 54 1016.0
20260510150016 72 0.0 0.0 0.00 0.00 0.00 55 1016.0
20260510145016 72 0.0 1.7 0.00 0.00 0.00 56 1016.0
20260510144016 71 270 0.9 6.1 0.00 0.00 0.00 57 1016.2
20260510143017 70 0.0 0.9 0.00 0.00 0.00 63 1016.0
20260510142017 68 0.0 0.0 0.00 0.00 0.00 68 1016.0
20260510141016 65 0.0 0.0 0.00 0.00 0.00 72 1016.0
20260510140016 63 0.0 0.0 0.00 0.00 0.00 78 1016.2
20260510135037 61 113 0.9 1.7 0.00 0.00 0.00 80 1016.1
20260510134016 59 0.0 0.0 0.00 0.00 0.00 83 1016.2
20260510133016 57 0.0 1.7 0.00 0.00 0.00 86 1016.3
20260510132016 55 0.0 0.0 0.00 0.00 0.00 88 1016.3
20260510131016 53 0.0 0.0 0.00 0.00 0.00 86 1016.1
20260510130016 51 0.0 1.7 0.00 0.00 0.00 85 1016.0
20260510125016 50 0.0 0.9 0.00 0.00 0.00 85 1016.1
20260510124016 49 0.0 0.0 0.00 0.00 0.00 85 1016.2
20260510123016 49 0.0 0.0 0.00 0.00 0.00 85 1016.1
20260510122016 49 0.0 0.0 0.00 0.00 0.00 85 1016.0
20260510121016 48 0.0 0.0 0.00 0.00 0.00 85 1015.8
20260510120016 47 0.0 0.0 0.00 0.00 0.00 85 1015.8
20260510115017 47 0.0 0.0 0.00 0.00 0.00 86 1015.8
20260510114016 46 0.0 0.0 0.00 0.00 0.00 86 1016.0
20260510113016 46 0.0 0.0 0.00 0.00 0.00 86 1015.9
20260510112016 46 0.0 0.0 0.00 0.00 0.00 86 1015.8
20260510111016 46 0.0 0.0 0.00 0.00 0.00 86 1015.5
20260510110016 46 0.0 0.0 0.00 0.00 0.00 86 1015.4
20260510105016 46 0.0 0.0 0.00 0.00 0.00 86 1015.2
20260510104016 46 0.0 0.0 0.00 0.00 0.00 86 1015.1
20260510103016 46 0.0 0.0 0.00 0.00 0.00 87 1014.8
20260510102016 46 0.0 0.0 0.00 0.00 0.00 87 1014.8
20260510101016 46 0.0 0.0 0.00 0.00 0.00 87 1014.7
20260510100016 46 0.0 0.0 0.00 0.00 0.00 87 1014.7
20260510095016 46 0.0 0.0 0.00 0.00 0.00 87 1014.5
20260510094016 46 0.0 0.0 0.00 0.00 0.00 87 1014.6
20260510093016 45 0.0 0.0 0.00 0.00 0.00 87 1014.7
20260510092016 45 0.0 0.0 0.00 0.00 0.00 87 1014.5
20260510091016 45 0.0 0.0 0.00 0.00 0.00 87 1014.4
20260510090016 45 0.0 0.0 0.00 0.00 0.00 87 1014.3
20260510085016 44 0.0 0.0 0.00 0.00 0.00 87 1014.2
20260510084016 44 0.0 0.0 0.00 0.00 0.00 88 1014.1
20260510083016 44 0.0 0.0 0.00 0.00 0.00 88 1014.1
20260510082016 44 0.0 0.0 0.00 0.00 0.00 88 1014.0
20260510081016 45 0.0 0.0 0.00 0.00 0.00 88 1013.8
20260510080016 45 0.0 0.0 0.00 0.00 0.00 88 1013.7
20260510075016 45 0.0 0.0 0.00 0.00 0.00 88 1013.6
20260510074016 45 0.0 0.0 0.00 0.00 0.00 88 1013.5
20260510073016 45 0.0 0.0 0.00 0.00 0.00 88 1013.4
20260510072016 45 0.0 0.0 0.00 0.00 0.00 88 1013.3
20260510071016 46 0.0 0.0 0.00 0.00 0.00 88 1013.4
20260510070036 46 0.0 0.0 0.00 0.00 0.00 88 1013.4
20260510065016 46 0.0 0.0 0.00 0.00 0.00 88 1013.4
20260510064036 46 0.0 0.0 0.00 0.00 0.00 88 1013.2
20260510063016 46 0.0 0.0 0.00 0.00 0.00 88 1013.3
20260510062016 47 0.0 0.0 0.00 0.00 0.00 88 1013.4
20260510061036 47 0.0 0.0 0.00 0.00 0.00 88 1013.5
20260510060016 47 0.0 0.0 0.00 0.00 0.00 88 1013.3
20260510055036 48 0.0 0.0 0.00 0.00 0.00 88 1013.2
20260510054016 48 0.0 0.0 0.00 0.00 0.00 88 1013.4
20260510053016 48 0.0 0.0 0.00 0.00 0.00 88 1013.5
20260510052016 48 0.0 0.0 0.00 0.00 0.00 88 1013.5
20260510051016 49 0.0 0.0 0.00 0.00 0.00 88 1013.5
20260510050016 49 0.0 0.0 0.00 0.00 0.00 88 1013.5
20260510045015 49 0.0 0.0 0.00 0.00 0.00 88 1013.5
20260510044016 49 0.0 0.0 0.00 0.00 0.00 88 1013.4
20260510043016 50 0.0 0.0 0.00 0.00 0.00 88 1013.3
20260510042036 50 0.0 0.0 0.00 0.00 0.00 87 1013.4
20260510041015 50 0.0 0.0 0.00 0.00 0.00 87 1013.3
20260510040016 51 0.0 0.0 0.00 0.00 0.00 87 1013.2
20260510035016 51 0.0 0.0 0.00 0.00 0.00 87 1013.1
20260510034015 51 0.0 0.0 0.00 0.00 0.00 87 1012.9
20260510033016 52 0.0 0.0 0.00 0.00 0.00 86 1012.9
20260510032036 52 0.0 0.0 0.00 0.00 0.00 86 1012.9
20260510031016 53 0.0 0.0 0.00 0.00 0.00 85 1012.8
20260510030015 53 0.0 0.0 0.00 0.00 0.00 84 1012.9
20260510025015 54 0.0 0.0 0.00 0.00 0.00 84 1012.9
20260510024015 54 0.0 0.0 0.00 0.00 0.00 83 1012.8
20260510023016 54 0.0 0.0 0.00 0.00 0.00 82 1012.4
20260510022015 55 0.0 0.0 0.00 0.00 0.00 81 1012.4
20260510021036 55 0.0 0.0 0.00 0.00 0.00 80 1012.1
20260510020015 56 0.0 0.0 0.00 0.00 0.00 80 1011.9
20260510015015 57 0.0 0.0 0.00 0.00 0.00 78 1011.8
20260510014015 57 0.0 0.0 0.00 0.00 0.00 77 1011.4
20260510013015 58 0.0 0.0 0.00 0.00 0.00 76 1011.2
20260510012015 59 0.0 0.0 0.00 0.00 0.00 74 1011.0
20260510011015 60 0.0 0.0 0.00 0.00 0.00 72 1010.7
20260510010015 61 0.0 0.0 0.00 0.00 0.00 69 1010.5
20260510005016 62 0.0 0.0 0.00 0.00 0.00 68 1010.5
20260510004015 63 0.0 0.0 0.00 0.00 0.00 64 1010.3
20260510003015 64 0.0 0.0 0.00 0.00 0.00 62 1010.4
20260510002015 65 0.0 0.0 0.00 0.00 0.00 60 1010.3
20260510001015 66 0.0 0.0 0.00 0.00 0.00 58 1010.2
20260510000016 67 0.0 0.0 0.00 0.00 0.00 56 1010.0
20260509235015 68 0.0 0.0 0.00 0.00 0.00 55 1010.0
20260509234015 68 0.0 0.0 0.00 0.00 0.00 53 1009.8
20260509233015 69 0.0 0.0 0.00 0.00 0.00 53 1009.7
20260509232019 70 0.0 0.0 0.00 0.00 0.00 52 1009.6
20260509231038 70 0.0 0.0 0.00 0.00 0.00 52 1009.7
20260509230018 70 0.0 0.0 0.00 0.00 0.00 51 1009.6
20260509225017 70 0.0 1.7 0.00 0.00 0.00 51 1009.7
20260509224017 71 0.0 0.0 0.00 0.00 0.00 50 1009.6
20260509223017 71 0.0 0.9 0.00 0.00 0.00 50 1009.6
20260509222017 71 315 0.9 1.7 0.00 0.00 0.00 50 1009.8
20260509221017 71 270 0.9 1.7 0.00 0.00 0.00 49 1009.9
20260509220019 71 0.0 0.9 0.00 0.00 0.00 51 1009.8
20260509215037 71 0.0 0.0 0.00 0.00 0.00 50 1009.8
20260509214017 71 270 1.7 5.2 0.00 0.00 0.00 49 1009.8